Date Time,Air Temp,Sky Temp,Clarity,Light Level,Rain Sensor,Readings
2010-10-25 00:00:18,17.8,-22.6,40.4,0.5,2.3,112
2010-10-25 00:05:18,17.7,-22.6,40.4,0.5,2.3,112
2010-10-25 00:10:18,17.7,-22.9,40.5,0.6,2.3,111
2010-10-25 00:15:18,17.6,-22.9,40.6,0.6,2.3,112
2010-10-25 00:20:18,17.6,-22.9,40.5,0.6,2.3,112
2010-10-25 00:25:18,17.6,-22.9,40.5,0.6,2.3,111
2010-10-25 00:30:18,17.6,-23.0,40.5,0.6,2.3,112
2010-10-25 00:35:18,17.5,-23.0,40.5,0.7,2.3,111
2010-10-25 00:40:18,17.4,-23.0,40.4,0.7,2.3,111
2010-10-25 00:45:18,17.4,-23.0,40.4,0.7,2.3,112
2010-10-25 00:50:18,17.4,-23.0,40.4,0.7,2.3,112
2010-10-25 00:55:18,17.3,-23.2,40.4,0.7,2.3,111
2010-10-25 01:00:18,17.2,-23.5,40.6,0.7,2.3,112
2010-10-25 01:05:18,17.1,-23.6,40.8,0.8,2.3,111
2010-10-25 01:10:18,17.1,-23.6,40.7,0.8,2.3,111
2010-10-25 01:15:18,17.0,-23.9,40.9,0.8,2.3,111
2010-10-25 01:20:18,17.0,-23.8,40.8,0.8,2.3,111
2010-10-25 01:25:18,17.0,-24.0,41.0,0.8,2.3,112
2010-10-25 01:30:18,17.0,-24.2,41.2,0.8,2.3,111
2010-10-25 01:35:18,17.0,-24.5,41.4,0.8,2.3,112
2010-10-25 01:40:18,16.9,-24.4,41.3,0.8,2.3,111
2010-10-25 01:45:18,16.9,-24.4,41.3,0.8,2.3,111
2010-10-25 01:50:18,16.9,-24.5,41.4,0.8,2.3,111
2010-10-25 01:55:18,16.9,-24.5,41.4,0.8,2.3,112
2010-10-25 02:00:18,16.9,-24.5,41.4,0.8,2.3,111
2010-10-25 02:05:18,16.8,-24.4,41.3,0.8,2.3,112
2010-10-25 02:10:18,16.8,-24.6,41.4,0.8,2.3,111
2010-10-25 02:15:18,16.7,-24.8,41.5,0.8,2.3,112
2010-10-25 02:20:18,16.7,-24.6,41.3,0.8,2.3,111
2010-10-25 02:25:18,16.7,-24.7,41.4,0.9,2.3,112
2010-10-25 02:30:18,16.7,-24.7,41.4,0.9,2.3,111
2010-10-25 02:35:18,16.7,-24.7,41.4,0.9,2.3,112
2010-10-25 02:40:18,16.7,-24.7,41.4,0.9,2.3,112
2010-10-25 02:45:18,16.7,-24.6,41.3,0.9,2.3,111
2010-10-25 02:50:18,16.7,-24.5,41.3,0.9,2.3,112
2010-10-25 02:55:18,16.7,-24.6,41.3,0.9,2.3,111
2010-10-25 03:00:18,16.7,-24.6,41.3,0.9,2.3,111
2010-10-25 03:05:18,16.7,-24.4,41.2,0.9,2.3,112
2010-10-25 03:10:18,16.8,-24.3,41.1,0.9,2.3,111
2010-10-25 03:15:18,16.8,-24.5,41.2,0.9,2.3,112
2010-10-25 03:20:18,16.8,-24.3,41.1,0.9,2.3,111
2010-10-25 03:25:18,16.8,-24.3,41.1,0.9,2.3,112
2010-10-25 03:30:18,16.8,-24.3,41.0,0.9,2.3,111
2010-10-25 03:35:18,16.8,-24.3,41.1,0.9,2.3,111
2010-10-25 03:40:18,16.6,-24.5,41.2,0.9,2.3,111
2010-10-25 03:45:18,16.5,-24.3,40.8,0.9,2.3,112
2010-10-25 03:50:18,16.5,-24.1,40.6,0.9,2.3,112
2010-10-25 03:55:19,16.4,-24.1,40.5,0.9,2.3,111
2010-10-25 04:00:19,16.4,-24.0,40.3,0.9,2.3,112
2010-10-25 04:05:19,16.0,-24.0,40.0,0.9,2.3,111
2010-10-25 04:10:19,16.0,-23.9,39.9,0.9,2.3,111
2010-10-25 04:15:19,16.3,-23.9,40.2,0.9,2.3,111
2010-10-25 04:20:19,16.4,-24.0,40.3,0.9,2.3,112
2010-10-25 04:25:19,16.4,-24.0,40.4,0.9,2.3,111
2010-10-25 04:30:19,16.4,-24.1,40.5,0.9,2.3,111
2010-10-25 04:35:19,16.1,-24.1,40.2,0.9,2.3,112
2010-10-25 04:40:19,16.3,-24.1,40.4,0.9,2.3,111
2010-10-25 04:45:19,16.3,-24.2,40.5,0.9,2.3,111
2010-10-25 04:50:19,16.2,-24.3,40.5,0.9,2.3,111
2010-10-25 04:55:19,16.1,-24.4,40.5,0.9,2.3,111
2010-10-25 05:00:19,16.1,-24.5,40.6,0.9,2.3,112
2010-10-25 05:05:19,16.1,-24.4,40.4,0.9,2.3,111
2010-10-25 05:10:19,15.8,-24.2,40.0,0.9,2.3,112
2010-10-25 05:15:19,16.0,-24.4,40.4,0.9,2.3,111
2010-10-25 05:20:19,15.9,-24.5,40.4,0.8,2.3,111
2010-10-25 05:25:19,15.9,-24.6,40.5,0.8,2.3,112
2010-10-25 05:30:19,15.9,-24.8,40.6,0.8,2.3,112
2010-10-25 05:35:19,15.9,-24.8,40.7,0.8,2.3,111
2010-10-25 05:40:19,15.9,-24.7,40.6,0.8,2.3,111
2010-10-25 05:45:19,15.7,-24.7,40.3,0.8,2.3,112
2010-10-25 05:50:19,16.0,-24.6,40.6,0.8,2.3,111
2010-10-25 05:55:19,16.0,-24.8,40.8,0.8,2.3,112
2010-10-25 06:00:19,16.0,-25.0,41.0,0.8,2.3,111
2010-10-25 06:05:19,16.0,-25.0,41.0,0.8,2.3,112
2010-10-25 06:10:19,15.9,-24.6,40.5,0.8,2.4,111
2010-10-25 06:15:19,15.9,-24.6,40.5,0.8,2.3,112
2010-10-25 06:20:19,15.9,-24.6,40.5,0.8,2.3,111
2010-10-25 06:25:19,16.0,-24.8,40.7,0.8,2.3,112
2010-10-25 06:30:19,16.0,-24.8,40.8,0.8,2.3,111
2010-10-25 06:35:19,15.9,-24.6,40.5,0.8,2.3,112
2010-10-25 06:40:19,15.7,-24.8,40.5,0.8,2.3,111
2010-10-25 06:45:19,15.6,-24.7,40.3,0.8,2.3,112
2010-10-25 06:50:19,15.6,-24.7,40.3,1.0,2.3,111
2010-10-25 06:55:19,15.6,-24.6,40.2,1.3,2.3,112
2010-10-25 07:00:19,15.6,-24.6,40.3,1.8,2.3,112
2010-10-25 07:05:19,15.7,-24.6,40.3,3.0,2.3,111
2010-10-25 07:10:19,15.7,-24.6,40.3,5.3,2.3,111
2010-10-25 07:15:19,15.8,-24.7,40.5,9.2,2.3,112
2010-10-25 07:20:19,15.9,-24.9,40.9,14.7,2.3,111
2010-10-25 07:25:19,15.9,-25.1,41.1,20.7,2.3,111
2010-10-25 07:30:19,16.0,-25.0,41.0,25.5,2.3,112
2010-10-25 07:35:19,16.0,-25.0,41.0,28.3,2.3,111
2010-10-25 07:40:19,16.0,-24.9,40.9,29.9,2.3,112
2010-10-25 07:45:19,16.0,-24.8,40.8,30.8,2.3,111
2010-10-25 07:50:19,16.1,-24.6,40.6,31.3,2.3,112
2010-10-25 07:55:19,16.1,-24.8,40.9,31.6,2.3,111
2010-10-25 08:00:19,16.1,-24.9,41.0,31.8,2.3,112
2010-10-25 08:05:19,16.2,-24.8,41.0,31.9,2.3,111
2010-10-25 08:10:19,16.3,-24.3,40.6,32.0,2.3,112
2010-10-25 08:15:19,16.5,-24.3,40.8,32.0,2.3,111
2010-10-25 08:20:19,16.7,-24.6,41.2,32.1,2.3,111
2010-10-25 08:25:19,16.7,-24.3,41.0,32.1,2.3,111
2010-10-25 08:30:19,16.7,-24.1,40.8,32.2,2.3,112
2010-10-25 08:35:19,16.8,-24.1,40.9,32.2,2.3,111
2010-10-25 08:40:19,16.8,-24.6,41.4,32.2,2.3,112
2010-10-25 08:45:19,16.9,-25.3,42.2,32.2,2.3,111
2010-10-25 08:50:19,16.8,-25.3,42.1,32.2,2.3,112
2010-10-25 08:55:19,16.8,-25.0,41.9,32.3,2.3,112
2010-10-25 09:00:19,16.9,-25.4,42.3,32.3,2.3,111
2010-10-25 09:05:19,17.0,-25.2,42.1,32.3,2.3,112
2010-10-25 09:10:19,17.1,-23.9,41.0,32.3,2.3,112
2010-10-25 09:15:19,17.3,-23.4,40.7,32.3,2.3,111
2010-10-25 09:20:19,17.5,-23.7,41.2,32.3,2.3,111
2010-10-25 09:25:19,17.6,-23.8,41.4,32.3,2.3,112
2010-10-25 09:30:19,17.7,-23.2,40.9,32.3,2.3,111
2010-10-25 09:35:19,17.9,-22.6,40.5,32.3,2.3,112
2010-10-25 09:40:19,18.2,-23.0,41.2,32.3,2.3,111
2010-10-25 09:45:19,18.3,-23.1,41.4,32.3,2.3,112
2010-10-25 09:50:19,18.0,-22.7,40.8,32.3,2.3,112
2010-10-25 09:55:19,18.4,-22.8,41.3,32.3,2.3,111
2010-10-25 10:00:19,18.2,-22.8,41.0,32.3,2.3,111
2010-10-25 10:05:19,18.9,-22.6,41.5,32.3,2.3,112
2010-10-25 10:10:19,18.9,-22.7,41.6,32.3,2.3,112
2010-10-25 10:15:19,18.9,-22.2,41.1,32.3,2.3,111
2010-10-25 10:20:19,19.1,-22.3,41.4,32.4,2.3,112
2010-10-25 10:25:19,19.1,-22.2,41.2,32.4,2.3,111
2010-10-25 10:30:19,19.3,-22.1,41.5,32.4,2.3,112
2010-10-25 10:35:19,19.5,-21.8,41.3,32.4,2.1,111
2010-10-25 10:40:19,19.6,-21.9,41.6,32.4,2.2,112
2010-10-25 10:45:19,19.8,-21.1,40.9,32.4,2.3,111
2010-10-25 10:50:19,20.2,-19.3,39.5,32.5,2.3,112
2010-10-25 10:55:19,21.6,-19.4,41.0,32.5,2.3,112
2010-10-25 11:00:19,22.8,-19.3,42.1,32.6,2.1,111
2010-10-25 11:05:19,23.8,-18.7,42.4,32.6,2.4,112
2010-10-25 11:10:19,24.9,-18.5,43.4,32.6,2.3,112
2010-10-25 11:15:19,25.5,-19.5,45.0,32.6,2.3,111
2010-10-25 11:20:19,25.7,-18.9,44.6,32.6,2.3,112
2010-10-25 11:25:19,26.0,-18.5,44.4,32.6,2.3,111
2010-10-25 11:30:19,26.3,-18.7,45.0,32.6,2.2,112
2010-10-25 11:35:19,26.5,-18.7,45.2,32.6,2.3,111
2010-10-25 11:40:19,26.4,-18.9,45.3,32.6,2.3,112
2010-10-25 11:45:19,26.2,-18.6,44.8,32.6,2.2,111
2010-10-25 11:50:19,26.2,-18.4,44.6,32.6,2.2,112
2010-10-25 11:55:19,26.1,-18.3,44.4,32.6,2.2,112
2010-10-25 12:00:19,26.2,-17.8,44.0,32.6,2.3,112
2010-10-25 12:05:19,26.4,-17.5,43.9,32.6,2.3,111
2010-10-25 12:10:19,26.4,-17.3,43.7,32.6,2.3,112
2010-10-25 12:15:19,26.5,-17.5,44.0,32.6,2.3,111
2010-10-25 12:20:19,26.7,-16.9,43.6,32.6,2.3,111
2010-10-25 12:25:19,26.7,-17.0,43.7,32.6,2.3,112
2010-10-25 12:30:19,26.6,-16.8,43.4,32.6,2.3,111
2010-10-25 12:35:19,26.5,-16.7,43.2,32.6,2.3,112
2010-10-25 12:40:19,26.5,-15.7,42.2,32.6,2.3,111
2010-10-25 12:45:19,26.9,-16.2,43.2,32.6,2.3,111
2010-10-25 12:50:19,27.1,-15.9,43.0,32.6,2.3,112
2010-10-25 12:55:19,27.3,-15.6,42.8,32.6,2.3,111
2010-10-25 13:00:19,27.3,-15.3,42.7,32.6,2.3,112
2010-10-25 13:05:19,27.7,-14.5,42.2,32.6,2.3,111
2010-10-25 13:10:19,28.3,-15.3,43.6,32.6,2.3,112
2010-10-25 13:15:19,28.2,-15.4,43.6,32.6,2.3,111
2010-10-25 13:20:19,27.8,-16.0,43.8,32.6,2.2,112
2010-10-25 13:25:19,27.3,-16.0,43.3,32.6,2.3,111
2010-10-25 13:30:19,26.9,-15.2,42.1,32.6,2.3,112
2010-10-25 13:35:19,27.0,-14.3,41.2,32.6,2.3,111
2010-10-25 13:40:19,27.7,-13.8,41.4,32.6,2.2,111
2010-10-25 13:45:19,28.6,-13.3,41.9,32.6,2.3,112
2010-10-25 13:50:19,28.9,-14.1,43.0,32.6,2.4,111
2010-10-25 13:55:19,28.5,-13.8,42.3,32.6,2.4,112
2010-10-25 14:00:19,28.5,-13.4,41.9,32.6,2.4,111
2010-10-25 14:05:19,28.8,-13.6,42.4,32.6,2.4,112
2010-10-25 14:10:19,29.4,-13.6,43.0,32.6,2.4,111
2010-10-25 14:15:19,29.6,-12.9,42.5,32.6,2.4,112
2010-10-25 14:20:19,30.1,-13.1,43.2,32.6,2.4,111
2010-10-25 14:25:19,30.1,-13.6,43.8,32.6,2.4,111
2010-10-25 14:30:19,29.7,-13.9,43.6,32.6,2.3,112
2010-10-25 14:35:19,29.3,-14.3,43.6,32.6,2.3,111
2010-10-25 14:40:19,28.9,-15.3,44.2,32.6,2.3,112
2010-10-25 14:45:19,29.2,-13.5,42.6,32.6,2.3,111
2010-10-25 14:50:19,29.3,-13.8,43.1,32.6,2.3,112
2010-10-25 14:55:19,29.6,-12.5,42.1,32.6,2.4,111
2010-10-25 15:00:19,30.0,-14.1,44.0,32.6,2.4,112
2010-10-25 15:05:19,29.5,-13.2,42.7,32.6,2.4,111
2010-10-25 15:10:19,29.5,-13.7,43.2,32.6,2.3,111
2010-10-25 15:15:19,29.7,-12.9,42.5,32.6,2.4,112
2010-10-25 15:20:19,30.3,-13.0,43.4,32.6,2.4,111
2010-10-25 15:25:19,31.0,-12.8,43.8,32.6,2.4,111
2010-10-25 15:30:19,31.5,-13.3,44.8,32.6,2.4,111
2010-10-25 15:35:19,30.9,-13.2,44.1,32.6,2.4,112
2010-10-25 15:40:19,31.1,-15.0,46.1,32.6,2.3,111
2010-10-25 15:45:19,30.7,-15.2,45.9,32.6,2.3,112
2010-10-25 15:50:19,29.9,-15.2,45.1,32.6,2.3,111
2010-10-25 15:55:19,29.7,-16.9,46.6,32.6,2.3,112
2010-10-25 16:00:19,28.8,-16.8,45.5,32.6,2.3,111
2010-10-25 16:05:19,28.5,-16.6,45.0,32.6,2.3,112
2010-10-25 16:10:19,28.1,-16.8,44.9,32.6,2.3,111
2010-10-25 16:15:19,27.8,-16.9,44.7,32.6,2.3,111
2010-10-25 16:20:19,27.6,-15.3,43.0,32.6,2.3,112
2010-10-25 16:25:19,28.4,-15.1,43.5,32.6,2.3,111
2010-10-25 16:30:19,28.9,-16.1,45.0,32.6,2.3,112
2010-10-25 16:35:19,28.5,-17.0,45.5,32.6,2.3,111
2010-10-25 16:40:19,27.9,-17.9,45.8,32.6,2.3,111
2010-10-25 16:45:19,27.6,-17.8,45.4,32.6,2.3,112
2010-10-25 16:50:19,27.4,-17.4,44.8,32.6,2.3,112
2010-10-25 16:55:19,26.9,-17.3,44.2,32.6,2.3,111
2010-10-25 17:00:19,26.6,-16.9,43.5,32.6,2.1,112
2010-10-25 17:05:19,26.5,-17.5,44.0,32.6,2.0,111
2010-10-25 17:10:19,26.3,-18.2,44.5,32.6,2.3,112
2010-10-25 17:15:19,25.9,-17.8,43.7,32.5,2.3,111
2010-10-25 17:20:19,25.6,-18.2,43.8,32.5,2.3,112
2010-10-25 17:25:19,25.3,-18.6,43.9,32.5,2.3,112
2010-10-25 17:30:19,24.7,-18.9,43.7,32.5,2.3,111
2010-10-25 17:35:19,24.0,-20.1,44.1,32.4,2.2,112
2010-10-25 17:40:19,23.2,-20.3,43.5,32.2,2.3,112
2010-10-25 17:45:19,22.4,-20.5,43.0,32.0,2.3,111
2010-10-25 17:50:19,21.9,-20.5,42.3,31.6,2.3,112
2010-10-25 17:55:19,21.4,-19.8,41.2,31.1,2.4,111
2010-10-25 18:00:19,21.2,-19.5,40.6,30.4,2.5,112
2010-10-25 18:05:19,21.0,-19.4,40.4,29.3,2.3,111
2010-10-25 18:10:19,20.9,-19.5,40.4,27.3,2.3,111
2010-10-25 18:15:19,20.7,-19.5,40.2,24.0,2.2,111
2010-10-25 18:20:19,20.7,-19.4,40.1,19.2,2.1,112
2010-10-25 18:25:19,20.7,-19.6,40.3,14.0,2.1,112
2010-10-25 18:30:19,20.6,-19.7,40.3,9.3,2.0,111
2010-10-25 18:35:19,20.3,-19.9,40.2,5.5,1.8,112
2010-10-25 18:40:19,20.1,-19.9,40.0,3.0,2.1,112
2010-10-25 18:45:19,20.0,-19.6,39.7,1.6,2.3,111
2010-10-25 18:50:19,19.9,-19.7,39.6,0.8,2.3,111
2010-10-25 18:55:19,19.9,-20.5,40.4,0.4,2.3,112
2010-10-25 19:00:19,19.8,-20.6,40.3,0.2,2.3,112
2010-10-25 19:05:20,19.7,-20.4,40.1,0.1,2.3,112
2010-10-25 19:10:20,19.7,-20.1,39.8,0.0,2.3,111
2010-10-25 19:15:20,19.7,-20.2,39.9,0.0,2.3,112
2010-10-25 19:20:20,19.7,-21.1,40.8,0.0,2.3,112
2010-10-25 19:25:20,19.6,-20.9,40.5,0.0,2.3,111
2010-10-25 19:30:20,19.5,-20.5,40.0,0.0,2.3,112
2010-10-25 19:35:20,19.6,-20.3,40.0,0.0,2.3,112
2010-10-25 19:40:20,19.6,-20.3,39.9,0.0,2.3,111
2010-10-25 19:45:20,19.6,-20.4,40.0,0.0,2.3,112
2010-10-25 19:50:20,19.5,-21.4,40.9,0.0,2.3,112
2010-10-25 19:55:20,19.4,-21.5,40.9,0.0,2.3,111
2010-10-25 20:00:20,19.3,-21.9,41.2,0.0,2.3,111
2010-10-25 20:05:20,18.9,-21.6,40.5,0.0,2.4,112
2010-10-25 20:10:20,18.8,-20.9,39.7,0.0,2.4,111
2010-10-25 20:15:20,18.9,-20.5,39.4,0.0,2.5,112
2010-10-25 20:20:20,18.9,-20.9,39.7,0.0,2.4,111
2010-10-25 20:25:20,18.8,-21.0,39.8,0.0,2.5,112
2010-10-25 20:30:20,18.3,-21.3,39.6,0.0,2.5,111
2010-10-25 20:35:20,18.6,-22.2,40.8,0.0,2.4,112
2010-10-25 20:40:20,18.6,-21.6,40.1,0.0,2.3,111
2010-10-25 20:45:20,18.6,-21.6,40.2,0.0,2.4,112
2010-10-25 20:50:20,18.5,-21.1,39.6,0.0,2.4,112
2010-10-25 20:55:20,18.4,-21.0,39.4,0.0,2.3,111
2010-10-25 21:00:20,18.4,-20.5,39.0,0.0,2.3,111
2010-10-25 21:05:20,18.4,-20.3,38.7,0.0,2.4,112
2010-10-25 21:10:20,18.4,-20.6,39.0,0.0,2.4,112
2010-10-25 21:15:20,18.4,-20.2,38.6,0.0,2.4,112
2010-10-25 21:20:20,18.5,-20.6,39.1,0.0,2.5,111
2010-10-25 21:25:20,18.6,-20.4,39.0,0.0,2.3,112
2010-10-25 21:30:20,18.6,-20.6,39.2,0.0,2.4,112
2010-10-25 21:35:20,18.6,-21.2,39.8,0.0,2.5,111
2010-10-25 21:40:20,18.4,-21.5,39.9,0.0,2.3,112
2010-10-25 21:45:20,18.5,-20.9,39.4,0.0,2.3,111
2010-10-25 21:50:20,18.5,-20.9,39.4,0.0,2.4,112
2010-10-25 21:55:20,18.6,-20.8,39.3,0.0,2.4,111
2010-10-25 22:00:20,18.6,-20.9,39.5,0.0,2.4,112
2010-10-25 22:05:20,18.6,-21.4,40.1,0.0,2.3,111
2010-10-25 22:10:20,18.6,-21.2,39.8,0.0,2.3,112
2010-10-25 22:15:20,18.7,-20.7,39.4,0.0,2.3,112
2010-10-25 22:20:20,18.7,-20.5,39.2,0.0,2.3,111
2010-10-25 22:25:20,18.7,-20.3,39.0,0.1,2.3,112
2010-10-25 22:30:20,18.7,-20.6,39.4,0.1,2.3,112
2010-10-25 22:35:20,18.6,-21.0,39.6,0.1,2.3,111
2010-10-25 22:40:20,18.6,-22.2,40.8,0.1,2.3,112
2010-10-25 22:45:20,18.6,-20.9,39.5,0.1,2.2,111
2010-10-25 22:50:20,18.5,-20.5,39.0,0.0,2.2,112
2010-10-25 22:55:20,18.5,-20.8,39.3,0.1,2.3,112
2010-10-25 23:00:20,18.6,-20.6,39.2,0.1,2.3,112
2010-10-25 23:05:20,18.6,-20.6,39.2,0.1,2.3,111
2010-10-25 23:10:20,18.6,-20.6,39.1,0.1,2.3,112
2010-10-25 23:15:20,18.6,-20.8,39.4,0.1,2.3,111
2010-10-25 23:20:20,18.5,-21.6,40.2,0.1,2.3,112
2010-10-25 23:25:20,18.5,-20.9,39.5,0.1,2.3,111
2010-10-25 23:30:20,18.6,-20.4,39.0,0.1,2.3,112
2010-10-25 23:35:20,18.6,-20.5,39.1,0.1,2.3,112
2010-10-25 23:40:20,18.6,-20.2,38.9,0.1,2.3,112
2010-10-25 23:45:20,18.6,-20.2,38.8,0.1,2.3,111
2010-10-25 23:50:20,18.5,-20.0,38.6,0.2,2.3,112
2010-10-25 23:55:20,18.5,-20.1,38.5,0.2,2.3,112
